Time,TemperatureF,DewpointF,PressureIn,WindDirection,WindDirectionDegrees,WindSpeedMPH,WindSpeedGustMPH,Humidity,HourlyPrecipIn,Conditions,Clouds,dailyrainin,SoftwareType,DateUTC
2013-06-26 00:13:00,74.1,68.0,29.87,SW,225,9.0,12.0,81,0.00,,,0.00,weatherlink.com 1.10,2013-06-26 04:13:00,
2013-06-26 00:28:00,74.8,68.0,29.87,SSW,211,5.0,16.0,79,0.00,,,0.00,weatherlink.com 1.10,2013-06-26 04:28:00,
2013-06-26 00:43:00,73.9,68.0,29.87,WSW,254,3.0,15.0,81,0.00,,,0.00,weatherlink.com 1.10,2013-06-26 04:43:00,
2013-06-26 00:58:00,73.1,68.0,29.87,SW,223,6.0,14.0,83,0.00,,,0.00,weatherlink.com 1.10,2013-06-26 04:58:00,
2013-06-26 01:13:00,72.3,68.0,29.87,WSW,239,6.0,9.0,85,0.00,,,0.00,weatherlink.com 1.10,2013-06-26 05:13:00,
2013-06-26 01:28:00,72.2,68.0,29.87,WSW,244,4.0,13.0,86,0.00,,,0.00,weatherlink.com 1.10,2013-06-26 05:28:00,
2013-06-26 01:43:00,72.3,68.0,29.86,WSW,240,3.0,10.0,85,0.00,,,0.00,weatherlink.com 1.10,2013-06-26 05:43:00,
2013-06-26 01:58:00,72.1,68.0,29.86,West,278,3.0,11.0,86,0.00,,,0.00,weatherlink.com 1.10,2013-06-26 05:58:00,
2013-06-26 02:13:00,72.0,68.0,29.86,West,259,5.0,10.0,86,0.00,,,0.00,weatherlink.com 1.10,2013-06-26 06:13:00,
2013-06-26 02:28:00,72.6,68.0,29.86,WSW,242,11.0,13.0,84,0.00,,,0.00,weatherlink.com 1.10,2013-06-26 06:28:00,
2013-06-26 02:43:00,72.0,68.0,29.84,WSW,252,4.0,12.0,86,0.00,,,0.00,weatherlink.com 1.10,2013-06-26 06:43:00,
2013-06-26 02:58:00,71.5,68.0,29.84,WSW,250,4.0,10.0,87,0.00,,,0.00,weatherlink.com 1.10,2013-06-26 06:58:00,
2013-06-26 03:13:00,71.2,68.0,29.84,SSW,209,6.0,14.0,88,0.00,,,0.00,weatherlink.com 1.10,2013-06-26 07:13:00,
2013-06-26 03:28:00,71.3,67.0,29.84,West,269,2.0,10.0,86,0.00,,,0.00,weatherlink.com 1.10,2013-06-26 07:28:00,
2013-06-26 03:43:00,73.3,67.0,29.84,West,265,4.0,15.0,80,0.00,,,0.00,weatherlink.com 1.10,2013-06-26 07:43:00,
2013-06-26 03:58:00,73.4,67.0,29.84,West,259,2.0,11.0,80,0.00,,,0.00,weatherlink.com 1.10,2013-06-26 07:58:00,
2013-06-26 04:14:00,71.7,67.0,29.83,WSW,247,6.0,8.0,85,0.00,,,0.00,weatherlink.com 1.10,2013-06-26 08:14:00,
2013-06-26 04:29:00,71.4,67.0,29.84,WSW,248,3.0,6.0,85,0.00,,,0.00,weatherlink.com 1.10,2013-06-26 08:29:00,
2013-06-26 04:44:00,71.2,67.0,29.84,West,259,4.0,9.0,85,0.00,,,0.00,weatherlink.com 1.10,2013-06-26 08:44:00,
2013-06-26 04:59:00,70.9,67.0,29.84,WSW,238,2.0,6.0,87,0.00,,,0.00,weatherlink.com 1.10,2013-06-26 08:59:00,
2013-06-26 05:14:00,72.1,67.0,29.84,WSW,240,2.0,10.0,83,0.00,,,0.00,weatherlink.com 1.10,2013-06-26 09:14:00,
2013-06-26 05:29:00,71.7,66.0,29.84,WSW,258,0.0,6.0,83,0.00,,,0.00,weatherlink.com 1.10,2013-06-26 09:29:00,
2013-06-26 05:44:00,71.7,66.0,29.84,West,270,1.0,9.0,83,0.00,,,0.00,weatherlink.com 1.10,2013-06-26 09:44:00,
2013-06-26 05:59:00,72.3,67.0,29.85,WNW,285,3.0,9.0,82,0.00,,,0.00,weatherlink.com 1.10,2013-06-26 09:59:00,
2013-06-26 06:14:00,72.0,66.0,29.85,WSW,244,2.0,5.0,82,0.00,,,0.00,weatherlink.com 1.10,2013-06-26 10:14:00,
2013-06-26 06:29:00,71.5,67.0,29.85,West,266,3.0,6.0,84,0.00,,,0.00,weatherlink.com 1.10,2013-06-26 10:29:00,
2013-06-26 06:44:00,71.7,67.0,29.86,WSW,249,0.0,6.0,84,0.00,,,0.00,weatherlink.com 1.10,2013-06-26 10:44:00,
2013-06-26 06:59:00,72.0,67.0,29.86,WNW,300,1.0,3.0,83,0.00,,,0.00,weatherlink.com 1.10,2013-06-26 10:59:00,
2013-06-26 07:14:00,72.6,67.0,29.86,WSW,238,0.0,5.0,81,0.00,,,0.00,weatherlink.com 1.10,2013-06-26 11:14:00,
2013-06-26 07:29:00,72.7,67.0,29.86,WSW,238,0.0,2.0,81,0.00,,,0.00,weatherlink.com 1.10,2013-06-26 11:29:00,
2013-06-26 07:44:00,73.4,68.0,29.86,WSW,238,0.0,0.0,82,0.00,,,0.00,weatherlink.com 1.10,2013-06-26 11:44:00,
2013-06-26 07:59:00,75.1,68.0,29.86,WSW,238,0.0,1.0,79,0.00,,,0.00,weatherlink.com 1.10,2013-06-26 11:59:00,
2013-06-26 08:14:00,76.2,69.0,29.85,WSW,239,0.0,2.0,79,0.00,,,0.00,weatherlink.com 1.10,2013-06-26 12:14:00,
2013-06-26 08:29:00,75.9,69.0,29.85,NNE,30,2.0,3.0,78,0.00,,,0.00,weatherlink.com 1.10,2013-06-26 12:29:00,
2013-06-26 08:44:00,76.2,67.0,29.85,NNE,30,0.0,2.0,74,0.00,,,0.00,weatherlink.com 1.10,2013-06-26 12:44:00,
2013-06-26 08:59:00,75.8,67.0,29.86,WSW,249,0.0,8.0,74,0.00,,,0.00,weatherlink.com 1.10,2013-06-26 12:59:00,
2013-06-26 09:14:00,75.1,67.0,29.85,South,191,1.0,7.0,75,0.00,,,0.00,weatherlink.com 1.10,2013-06-26 13:14:00,
2013-06-26 09:29:00,75.9,66.0,29.85,WSW,242,2.0,7.0,72,0.00,,,0.00,weatherlink.com 1.10,2013-06-26 13:29:00,
2013-06-26 09:44:00,75.9,67.0,29.85,WSW,246,5.0,7.0,75,0.00,,,0.00,weatherlink.com 1.10,2013-06-26 13:44:00,
2013-06-26 09:59:00,75.0,68.0,29.85,WSW,243,1.0,9.0,80,0.00,,,0.00,weatherlink.com 1.10,2013-06-26 13:59:00,
2013-06-26 10:14:00,75.4,69.0,29.84,WSW,244,4.0,7.0,79,0.00,,,0.00,weatherlink.com 1.10,2013-06-26 14:14:00,
2013-06-26 10:29:00,75.7,70.0,29.84,WSW,242,6.0,8.0,81,0.00,,,0.00,weatherlink.com 1.10,2013-06-26 14:29:00,
2013-06-26 10:44:00,76.4,69.0,29.84,South,180,2.0,6.0,79,0.00,,,0.00,weatherlink.com 1.10,2013-06-26 14:44:00,
2013-06-26 10:59:00,77.3,68.0,29.84,WSW,251,4.0,9.0,74,0.00,,,0.00,weatherlink.com 1.10,2013-06-26 14:59:00,
2013-06-26 11:14:00,78.5,69.0,29.84,WSW,237,1.0,6.0,73,0.00,,,0.00,weatherlink.com 1.10,2013-06-26 15:14:00,
2013-06-26 11:29:00,79.0,69.0,29.84,ENE,57,2.0,3.0,72,0.00,,,0.00,weatherlink.com 1.10,2013-06-26 15:29:00,
2013-06-26 11:44:00,79.7,69.0,29.84,WNW,300,0.0,6.0,70,0.00,,,0.00,weatherlink.com 1.10,2013-06-26 15:44:00,
2013-06-26 11:59:00,79.6,70.0,29.83,SSW,205,0.0,10.0,72,0.00,,,0.00,weatherlink.com 1.10,2013-06-26 15:59:00,
2013-06-26 12:14:00,79.5,69.0,29.83,WSW,245,1.0,9.0,70,0.00,,,0.00,weatherlink.com 1.10,2013-06-26 16:14:00,
2013-06-26 12:29:00,80.3,70.0,29.83,NW,306,5.0,7.0,71,0.00,,,0.00,weatherlink.com 1.10,2013-06-26 16:29:00,
2013-06-26 12:44:00,79.9,69.0,29.83,West,279,2.0,12.0,69,0.00,,,0.00,weatherlink.com 1.10,2013-06-26 16:44:00,
2013-06-26 12:59:00,78.6,68.0,29.84,WSW,252,11.0,16.0,70,0.00,,,0.00,weatherlink.com 1.10,2013-06-26 16:59:00,
2013-06-26 13:14:00,69.1,63.0,29.86,West,259,3.0,12.0,80,0.12,,,0.12,weatherlink.com 1.10,2013-06-26 17:14:00,
2013-06-26 13:29:00,67.8,64.0,29.84,SSW,204,0.0,8.0,86,0.16,,,0.16,weatherlink.com 1.10,2013-06-26 17:29:00,
2013-06-26 13:44:00,66.8,64.0,29.85,NE,44,0.0,7.0,90,0.17,,,0.17,weatherlink.com 1.10,2013-06-26 17:44:00,
2013-06-26 13:59:00,66.5,65.0,29.82,SW,236,2.0,5.0,93,0.17,,,0.17,weatherlink.com 1.10,2013-06-26 17:59:00,
2013-06-26 14:15:00,67.4,66.0,29.83,SSE,164,0.0,3.0,94,0.04,,,0.17,weatherlink.com 1.10,2013-06-26 18:15:00,
2013-06-26 14:30:00,67.6,66.0,29.83,NE,43,0.0,7.0,94,0.01,,,0.17,weatherlink.com 1.10,2013-06-26 18:30:00,
2013-06-26 14:45:00,68.2,66.0,29.82,NE,43,1.0,2.0,93,0.00,,,0.17,weatherlink.com 1.10,2013-06-26 18:45:00,
2013-06-26 15:00:00,68.8,66.0,29.81,NE,43,0.0,3.0,91,0.00,,,0.17,weatherlink.com 1.10,2013-06-26 19:00:00,
2013-06-26 15:15:00,70.1,68.0,29.81,South,176,1.0,3.0,93,0.00,,,0.17,weatherlink.com 1.10,2013-06-26 19:15:00,
2013-06-26 15:30:00,70.1,65.0,29.80,East,94,1.0,3.0,85,0.00,,,0.17,weatherlink.com 1.10,2013-06-26 19:30:00,
2013-06-26 15:45:00,69.9,66.0,29.79,SE,131,0.0,2.0,88,0.00,,,0.17,weatherlink.com 1.10,2013-06-26 19:45:00,
2013-06-26 16:00:00,70.3,68.0,29.80,North,355,1.0,8.0,91,0.00,,,0.17,weatherlink.com 1.10,2013-06-26 20:00:00,
2013-06-26 16:15:00,71.1,67.0,29.81,NNW,348,1.0,8.0,88,0.00,,,0.17,weatherlink.com 1.10,2013-06-26 20:15:00,
2013-06-26 16:30:00,71.7,67.0,29.81,North,355,1.0,4.0,86,0.00,,,0.17,weatherlink.com 1.10,2013-06-26 20:30:00,
2013-06-26 16:45:00,72.1,67.0,29.80,NW,309,3.0,8.0,83,0.00,,,0.17,weatherlink.com 1.10,2013-06-26 20:45:00,
2013-06-26 17:00:00,72.9,68.0,29.80,NE,44,0.0,2.0,83,0.00,,,0.17,weatherlink.com 1.10,2013-06-26 21:00:00,
2013-06-26 17:15:00,73.8,69.0,29.81,SSE,147,2.0,8.0,84,0.00,,,0.17,weatherlink.com 1.10,2013-06-26 21:15:00,
2013-06-26 17:30:00,71.5,67.0,29.80,NNE,32,2.0,6.0,85,0.00,,,0.17,weatherlink.com 1.10,2013-06-26 21:30:00,
2013-06-26 17:45:00,72.1,68.0,29.80,NE,51,0.0,1.0,87,0.00,,,0.17,weatherlink.com 1.10,2013-06-26 21:45:00,
2013-06-26 18:00:00,73.8,69.0,29.78,NNE,32,1.0,2.0,84,0.00,,,0.17,weatherlink.com 1.10,2013-06-26 22:00:00,
2013-06-26 18:15:00,75.3,70.0,29.78,NNE,32,0.0,1.0,83,0.00,,,0.17,weatherlink.com 1.10,2013-06-26 22:15:00,
2013-06-26 18:30:00,76.4,71.0,29.79,NNE,32,0.0,1.0,82,0.00,,,0.17,weatherlink.com 1.10,2013-06-26 22:30:00,
2013-06-26 18:45:00,74.0,69.0,29.80,ENE,62,0.0,4.0,85,0.00,,,0.17,weatherlink.com 1.10,2013-06-26 22:45:00,
2013-06-26 19:00:00,73.4,69.0,29.78,ENE,62,0.0,1.0,86,0.00,,,0.17,weatherlink.com 1.10,2013-06-26 23:00:00,
2013-06-26 19:15:00,73.2,69.0,29.79,ENE,62,0.0,1.0,87,0.00,,,0.17,weatherlink.com 1.10,2013-06-26 23:15:00,
2013-06-26 19:30:00,73.1,69.0,29.79,ENE,62,0.0,0.0,88,0.00,,,0.17,weatherlink.com 1.10,2013-06-26 23:30:00,
2013-06-26 19:45:00,72.7,70.0,29.79,ENE,62,0.0,2.0,90,0.00,,,0.17,weatherlink.com 1.10,2013-06-26 23:45:00,
2013-06-26 20:00:00,71.9,69.0,29.79,ENE,62,1.0,1.0,90,0.00,,,0.17,weatherlink.com 1.10,2013-06-27 00:00:00,
2013-06-26 20:15:00,71.1,67.0,29.79,SE,134,0.0,2.0,86,0.00,,,0.17,weatherlink.com 1.10,2013-06-27 00:15:00,
2013-06-26 20:30:00,70.6,66.0,29.80,SE,136,1.0,1.0,85,0.00,,,0.17,weatherlink.com 1.10,2013-06-27 00:30:00,
2013-06-26 20:45:00,72.1,67.0,29.80,SW,219,3.0,5.0,84,0.00,,,0.17,weatherlink.com 1.10,2013-06-27 00:45:00,
2013-06-26 21:00:00,72.3,67.0,29.80,SSW,211,4.0,7.0,84,0.00,,,0.17,weatherlink.com 1.10,2013-06-27 01:00:00,
2013-06-26 21:15:00,72.2,67.0,29.81,SW,220,3.0,9.0,83,0.00,,,0.17,weatherlink.com 1.10,2013-06-27 01:15:00,
2013-06-26 21:30:00,71.7,67.0,29.81,SW,230,6.0,9.0,86,0.00,,,0.17,weatherlink.com 1.10,2013-06-27 01:30:00,
2013-06-26 21:45:00,70.8,68.0,29.80,SSW,200,3.0,7.0,89,0.00,,,0.17,weatherlink.com 1.10,2013-06-27 01:45:00,
2013-06-26 22:00:00,69.9,66.0,29.80,SSW,207,6.0,8.0,87,0.00,,,0.17,weatherlink.com 1.10,2013-06-27 02:00:00,
2013-06-26 22:15:00,70.0,66.0,29.80,SSW,205,4.0,7.0,87,0.00,,,0.17,weatherlink.com 1.10,2013-06-27 02:15:00,
2013-06-26 22:30:00,69.7,65.0,29.80,WSW,250,4.0,10.0,86,0.00,,,0.17,weatherlink.com 1.10,2013-06-27 02:30:00,
2013-06-26 22:45:00,69.5,66.0,29.80,SW,228,3.0,9.0,87,0.00,,,0.17,weatherlink.com 1.10,2013-06-27 02:45:00,
2013-06-26 23:00:00,70.4,66.0,29.80,SSW,207,3.0,7.0,86,0.00,,,0.17,weatherlink.com 1.10,2013-06-27 03:00:00,
2013-06-26 23:15:00,71.4,66.0,29.80,SW,215,4.0,8.0,84,0.00,,,0.17,weatherlink.com 1.10,2013-06-27 03:15:00,
2013-06-26 23:30:00,72.5,67.0,29.79,SSW,207,3.0,10.0,84,0.00,,,0.17,weatherlink.com 1.10,2013-06-27 03:30:00,
2013-06-26 23:45:00,72.7,67.0,29.79,South,173,5.0,5.0,83,0.00,,,0.17,weatherlink.com 1.10,2013-06-27 03:45:00,